Regional Weather Roundup
Issued by NWS Green Bay, WI

Home | Current Version | Previous Version | Graphics & Text | Print | Product List | Glossary Off
Versions: 1 2 3 4 5 6 7 8 9 10 11 12 13 14 15 16 17 18 19 20 21 22 23 24 25 26 27 28 29 30 31 32 33 34 35 36 37 38 39 40 41 42 43 44 45 46 47 48 49 50

000
ASUS43 KGRB 301459
RWRGRB

NORTH-CENTRAL AND NORTHEAST WISCONSIN REGIONAL WEATHER ROUNDUP
NATIONAL WEATHER SERVICE GREEN BAY WI
1000 AM CDT SAT AUG 30 2014

WIZ005-009-010>012-018-019-301600-
NORTH CENTRAL WISCONSIN

CITY           SKY/WX    TMP DP  RH WIND       PRES   REMARKS
IRONWOOD       NOT AVBL
MANITOWISH WTR NOT AVBL
ARBOR VITAE    NOT AVBL
EAGLE RIVER    NOT AVBL
LAND O LAKES   NOT AVBL
RHINELANDER    CLOUDY    67  63  87 CALM      29.79S
PHILLIPS       NOT AVBL
ANTIGO         NOT AVBL
TOMAHAWK       NOT AVBL
MERRILL        NOT AVBL
$$

WIZ013-073-301600-
NORTHEAST WISCONSIN

CITY           SKY/WX    TMP DP  RH WIND       PRES   REMARKS
IRON MOUNTAIN  LGT RAIN  66  64  93 CALM      29.76R
MARINETTE      CLOUDY    72  66  83 SW8       29.72S
$$

WIZ017-030-035>037-045-301600-
CENTRAL WISCONSIN

CITY           SKY/WX    TMP DP  RH WIND       PRES   REMARKS
MEDFORD        NOT AVBL
WAUSAU         CLOUDY    69  65  86 NW6       29.76R
MOSINEE        PTSUNNY   66  66 100 NW5       29.78R
MARSHFIELD     PTSUNNY   70  65  84 W10       29.78S
WISC RAPIDS    CLOUDY    69  66  90 NW7       29.79R
STEVENS POINT  NOT AVBL
WAUPACA        NOT AVBL
SHAWANO        NOT AVBL
CLINTONVILLE   NOT AVBL
$$

WIZ038-039-048-051-301600-
FOX VALLEY

CITY           SKY/WX    TMP DP  RH WIND       PRES   REMARKS
NWS GREEN BAY  PTSUNNY   75  70  84 S12G18    29.73S
APPLETON       PTSUNNY   72  66  83 SW13      29.75S
OSHKOSH        CLOUDY    73  68  84 SW13      29.75S
FOND DU LAC    CLOUDY    72  68  87 SW10      29.76F
$$

WIZ022-050-052-301600-
EAST CENTRAL WISCONSIN

CITY           SKY/WX    TMP DP  RH WIND       PRES   REMARKS
STURGEON BAY   MOSUNNY   73  68  83 SW8       29.74S
MANITOWOC      NOT AVBL
SHEBOYGAN      PTSUNNY   76  67  73 S16G25    29.77F
$$

LMZ563-521-522-541>543-301600-
LAKESHORE

STATION/POSITION TIME  TEMP    WIND        PRES    VSBY  WAVE
                       AIR SEA DIR/SP/G                  HT/PER
                 (UTC) (F)     (DEG/KT/KT) (MB)    (MI)  (FT/S)
SHEBOYGAN LKSHOR 1400   71 56  190/ 15/ 16 1008.3R
KEWAUNEE LKSHORE 1400   64     180/ 10/ 12 1006.5F
NORTHPORT PIER   1400   68     170/  6/ 11 1006.8F
N MID LAKE BUOY  1400   67 65  200/ 14/ 17 1007.1F         4/ 5
S GREEN BAY BUOY 1400   72     VRB 12/ 14  1007.6F
CHAMBERS ISLAND  1400   69      CALM  /  4 1007.1S
MENOMINEE LKSHOR 1400   69     160/  5/  8 1007.3F
$$



USA.gov is the U.S. government's official web portal to all federal, state and local government web resources and services.